Location: Newark
(54.0610°N, 4.7980°W)
Time: 19:37:02
(UTC+00:00)

OTV 5 (USA 277) - Visible Passes

Search period start: 22 October 2019 00:00
Search period end: 01 November 2019 00:00
Orbit: 310 x 324 km, 54.5° (Epoch: 17 October)

Date Brightness Start Highest point End Pass type
(mag) Time Alt. Az. Time Alt. Az. Time Alt. Az.
30 Oct ? 19:07:01 10° SSW 19:07:33 14° SSW 19:07:33 14° SSW visible
31 Oct ? 17:49:14 10° SSE 17:50:04 11° SE 17:50:56 10° ESE visible
31 Oct ? 19:21:11 10° SW 19:21:50 15° SW 19:21:50 15° SW visible
